TimePDT,TemperatureF,Dew PointF,Humidity,Sea Level PressureIn,VisibilityMPH,Wind Direction,Wind SpeedMPH,Gust SpeedMPH,PrecipitationIn,Events,Conditions,WindDirDegrees,DateUTC
12:47 AM,54.0,50.0,86,30.08,5.0,Calm,Calm,-,N/A,,Clear,0,2013-03-13 07:47:00
1:47 AM,54.0,50.0,86,30.07,6.0,Calm,Calm,-,N/A,,Clear,0,2013-03-13 08:47:00
2:47 AM,52.0,48.0,86,30.07,6.0,Calm,Calm,-,N/A,,Clear,0,2013-03-13 09:47:00
3:47 AM,52.0,48.9,89,30.06,6.0,Calm,Calm,-,N/A,,Clear,0,2013-03-13 10:47:00
4:47 AM,52.0,48.9,89,30.06,5.0,Calm,Calm,-,N/A,,Clear,0,2013-03-13 11:47:00
5:47 AM,52.0,48.9,89,30.06,5.0,Calm,Calm,-,N/A,,Clear,0,2013-03-13 12:47:00
6:47 AM,51.1,48.0,89,30.07,6.0,Calm,Calm,-,N/A,,Clear,0,2013-03-13 13:47:00
7:47 AM,52.0,48.0,86,30.08,6.0,Calm,Calm,-,N/A,,Clear,0,2013-03-13 14:47:00
8:47 AM,59.0,48.9,69,30.09,10.0,Calm,Calm,-,N/A,,Clear,0,2013-03-13 15:47:00
9:47 AM,66.9,48.9,52,30.10,10.0,Calm,Calm,-,N/A,,Clear,0,2013-03-13 16:47:00
10:47 AM,73.0,45.0,37,30.10,10.0,Calm,Calm,-,N/A,,Clear,0,2013-03-13 17:47:00
11:47 AM,79.0,46.0,31,30.09,10.0,Calm,Calm,-,N/A,,Clear,0,2013-03-13 18:47:00
12:47 PM,82.0,42.1,24,30.07,10.0,Calm,Calm,-,N/A,,Clear,0,2013-03-13 19:47:00
1:47 PM,82.9,45.0,26,30.04,10.0,Calm,Calm,-,N/A,,Clear,0,2013-03-13 20:47:00
2:47 PM,77.0,45.0,32,30.03,10.0,Variable,3.5,-,N/A,,Clear,0,2013-03-13 21:47:00
3:47 PM,78.1,42.1,28,30.02,10.0,Variable,4.6,-,N/A,,Clear,0,2013-03-13 22:47:00
4:47 PM,73.9,46.9,38,30.02,10.0,Variable,4.6,-,N/A,,Clear,0,2013-03-13 23:47:00
5:47 PM,71.1,46.9,42,30.01,10.0,Calm,Calm,-,N/A,,Clear,0,2013-03-14 00:47:00
6:47 PM,66.0,48.9,54,30.03,10.0,Calm,Calm,-,N/A,,Clear,0,2013-03-14 01:47:00
7:47 PM,62.1,50.0,65,30.03,10.0,Calm,Calm,-,N/A,,Clear,0,2013-03-14 02:47:00
8:47 PM,59.0,51.1,75,30.06,10.0,Calm,Calm,-,N/A,,Clear,0,2013-03-14 03:47:00
9:47 PM,57.9,52.0,81,30.07,10.0,Calm,Calm,-,N/A,,Clear,0,2013-03-14 04:47:00
10:47 PM,57.9,52.0,81,30.08,10.0,Calm,Calm,-,N/A,,Clear,0,2013-03-14 05:47:00
11:47 PM,55.9,52.0,87,30.08,9.0,Calm,Calm,-,N/A,,Clear,0,2013-03-14 06:47:00